Weather History for Savanna, IL

Change the Weather History Date:

Tuesday, April 15, 2014

  Actual Average (KCWI) Record (KCWI)
Temperature  
Mean Temperature 34 °F -  
Max Temperature 41 °F 62 °F 89 °F (2002)
Min Temperature 26 °F 40 °F 21 °F (2014)
Degree Days  
Heating Degree Days 32    
Moisture  
Dew Point 17 °F    
Average Humidity 53    
Maximum Humidity 80    
Minimum Humidity 33    
Precipitation  
Precipitation 0.00 in - - ()
Sea Level Pressure  
Sea Level Pressure 30.13 in    
Wind  
Wind Speed 7 mph (WNW)    
Max Wind Speed 12 mph    
Max Gust Speed 16 mph    
Visibility 10 miles    
Events      
Averages and records for this station are not official NWS values.
T = Trace of Precipitation, MM = Missing Value Source: NWS Daily Summary

Daily Weather History Graph

Daily Weather History Graph

Search for Another Location

Airport:

Trip Planner

Search our weather history database for the weather conditions in past years. The results will help you decide how hot, cold, wet, or windy it might be!

Date:

Astronomy

Apr. 15, 2014 Rise Set
Actual Time 6:19 AM CDT 7:41 PM CDT
Civil Twilight 5:50 AM CDT 8:10 PM CDT
Nautical Twilight 5:16 AM CDT 8:45 PM CDT
Astronomical Twilight 4:39 AM CDT 9:22 PM CDT
Moon 8:23 PM CDT (4/15) 6:27 AM CDT (4/15)
Length of Visible Light 14h 19m
Length of Day
13h 21m
Full, 100% of the Moon is Illuminated
Apr 15
Full
Apr 22
Last Quarter
Apr 29
New
May 6
First Quarter
May 14
Full

Hourly Weather History & Observations

Time (CDT) Temp. Windchill Dew Point Humidity Pressure Visibility Wind Dir Wind Speed Gust Speed Precip Events Conditions
12:15 AM 31.1 °F 24.5 °F 23.0 °F 72% 30.05 in 10.0 mi NNW 6.9 mph - N/A   Scattered Clouds
12:35 AM 32.0 °F 24.2 °F 22.6 °F 68% 30.05 in 10.0 mi NW 9.2 mph - N/A   Clear
12:55 AM 31.6 °F 23.1 °F 21.9 °F 67% 30.05 in 10.0 mi NW 10.4 mph - N/A   Clear
1:15 AM 31.8 °F 24.6 °F 21.6 °F 66% 30.05 in 10.0 mi NW 8.1 mph 16.1 mph N/A   Clear
1:35 AM 31.5 °F 22.9 °F 21.0 °F 65% 30.05 in 10.0 mi NW 10.4 mph - N/A   Clear
1:55 AM 30.9 °F 22.8 °F 20.3 °F 65% 30.05 in 10.0 mi NNW 9.2 mph - N/A   Clear
2:15 AM 30.9 °F 23.5 °F 19.8 °F 63% 30.05 in 10.0 mi NW 8.1 mph - N/A   Clear
2:35 AM 30.9 °F 21.7 °F 18.5 °F 60% 30.05 in 10.0 mi NW 11.5 mph - N/A   Clear
2:55 AM 30.7 °F 22.6 °F 18.3 °F 60% 30.06 in 10.0 mi NW 9.2 mph - N/A   Clear
3:15 AM 30.6 °F 21.8 °F 17.6 °F 59% 30.06 in 10.0 mi NW 10.4 mph - N/A   Clear
3:35 AM 30.0 °F 23.2 °F 18.5 °F 62% 30.06 in 10.0 mi NW 6.9 mph - N/A   Clear
3:55 AM 30.2 °F 21.3 °F 18.1 °F 61% 30.07 in 10.0 mi NW 10.4 mph - N/A   Clear
4:15 AM 29.5 °F 21.8 °F 17.6 °F 61% 30.07 in 10.0 mi NW 8.1 mph - N/A   Clear
4:35 AM 29.3 °F 22.3 °F 16.2 °F 58% 30.07 in 10.0 mi NNW 6.9 mph - N/A   Clear
4:55 AM 28.4 °F 22.2 °F 17.1 °F 63% 30.08 in 10.0 mi NNW 5.8 mph - N/A   Clear
5:15 AM 28.0 °F 20.0 °F 16.9 °F 63% 30.08 in 10.0 mi NNW 8.1 mph - N/A   Clear
5:35 AM 27.9 °F 20.6 °F 15.8 °F 61% 30.09 in 10.0 mi NNW 6.9 mph - N/A   Clear
5:55 AM 27.3 °F 20.9 °F 15.8 °F 62% 30.10 in 10.0 mi North 5.8 mph - N/A   Scattered Clouds
6:10 AM 27.0 °F 21.6 °F 16.2 °F 64% 30.10 in 10.0 mi NNW 4.6 mph - N/A   Scattered Clouds
6:35 AM 26.6 °F 21.2 °F 16.5 °F 66% 30.11 in 10.0 mi North 4.6 mph - N/A   Scattered Clouds
6:55 AM 26.4 °F - 17.2 °F 68% 30.11 in 10.0 mi Calm Calm - N/A   Clear
7:15 AM 28.2 °F - 18.9 °F 68% 30.12 in 10.0 mi Calm Calm - N/A   Clear
7:35 AM 28.9 °F - 17.4 °F 62% 30.13 in 10.0 mi Calm Calm - N/A   Scattered Clouds
7:55 AM 29.7 °F 26.1 °F 18.0 °F 62% 30.13 in 10.0 mi NNW 3.5 mph - N/A   Clear
8:15 AM 30.0 °F 26.5 °F 17.6 °F 60% 30.13 in 10.0 mi North 3.5 mph - N/A   Clear
8:35 AM 30.9 °F 25.2 °F 17.4 °F 57% 30.14 in 10.0 mi North 5.8 mph - N/A   Scattered Clouds
8:55 AM 31.8 °F - 17.1 °F 55% 30.14 in 10.0 mi Calm Calm - N/A   Scattered Clouds
9:15 AM 32.0 °F 25.6 °F 14.9 °F 49% 30.15 in 10.0 mi WNW 6.9 mph - N/A   Clear
9:35 AM 33.3 °F 28.9 °F 14.2 °F 46% 30.15 in 10.0 mi West 4.6 mph - N/A   Scattered Clouds
9:55 AM 33.1 °F 27.7 °F 12.6 °F 43% 30.16 in 10.0 mi West 5.8 mph - N/A   Clear
10:15 AM 34.0 °F 28.0 °F 13.6 °F 43% 30.16 in 10.0 mi West 6.9 mph - N/A   Mostly Cloudy
10:35 AM 33.8 °F 27.7 °F 13.6 °F 44% 30.16 in 10.0 mi West 6.9 mph - N/A   Overcast
10:55 AM 34.2 °F 28.2 °F 13.5 °F 43% 30.17 in 10.0 mi West 6.9 mph - N/A   Mostly Cloudy
11:35 AM 34.7 °F 30.6 °F 16.2 °F 47% 30.16 in 10.0 mi WNW 4.6 mph - N/A   Overcast
11:55 AM 35.8 °F 29.4 °F 15.4 °F 44% 30.16 in 10.0 mi NW 8.1 mph - N/A   Mostly Cloudy
12:35 PM 36.7 °F 31.2 °F 14.0 °F 39% 30.16 in 10.0 mi WNW 6.9 mph - N/A   Mostly Cloudy
12:55 PM 37.4 °F 32.8 °F 13.5 °F 38% 30.16 in 10.0 mi West 5.8 mph - N/A   Mostly Cloudy
1:15 PM 38.3 °F 30.9 °F 15.3 °F 39% 30.15 in 10.0 mi WSW 11.5 mph - N/A   Overcast
1:35 PM 37.2 °F 31.9 °F 11.8 °F 35% 30.16 in 10.0 mi West 6.9 mph - N/A   Mostly Cloudy
1:55 PM 39.7 °F 34.3 °F 14.7 °F 36% 30.16 in 10.0 mi West 8.1 mph - N/A   Overcast
2:15 PM 39.0 °F 32.8 °F 13.5 °F 35% 30.16 in 10.0 mi West 9.2 mph - N/A   Overcast
2:35 PM 39.6 °F 33.0 °F 15.8 °F 38% 30.16 in 10.0 mi West 10.4 mph - N/A   Overcast
2:55 PM 38.3 °F 35.9 °F 12.7 °F 35% 30.15 in 10.0 mi West 3.5 mph - N/A   Scattered Clouds
3:15 PM 39.7 °F 34.9 °F 14.4 °F 36% 30.14 in 10.0 mi West 6.9 mph - N/A   Clear
3:35 PM 40.5 °F 33.6 °F 14.2 °F 34% 30.14 in 10.0 mi West 11.5 mph - N/A   Clear
3:55 PM 40.5 °F 35.8 °F 13.3 °F 33% 30.13 in 10.0 mi WSW 6.9 mph - N/A   Scattered Clouds
4:15 PM 40.6 °F 36.0 °F 14.2 °F 34% 30.13 in 10.0 mi WNW 6.9 mph - N/A   Scattered Clouds
4:35 PM 39.9 °F 36.7 °F 14.0 °F 35% 30.13 in 10.0 mi West 4.6 mph - N/A   Scattered Clouds
4:55 PM 41.0 °F 35.2 °F 14.0 °F 33% 30.13 in 10.0 mi WSW 9.2 mph - N/A   Scattered Clouds
5:15 PM 40.1 °F 36.9 °F 14.9 °F 36% 30.13 in 10.0 mi SW 4.6 mph - N/A   Scattered Clouds
5:35 PM 39.7 °F 34.9 °F 14.2 °F 35% 30.13 in 10.0 mi WSW 6.9 mph - N/A   Scattered Clouds
5:55 PM 40.3 °F 34.9 °F 13.6 °F 34% 30.13 in 10.0 mi WSW 8.1 mph - N/A   Scattered Clouds
6:15 PM 40.1 °F 35.3 °F 12.6 °F 33% 30.13 in 10.0 mi WSW 6.9 mph - N/A   Scattered Clouds
6:35 PM 39.7 °F 34.3 °F 12.6 °F 33% 30.13 in 10.0 mi WSW 8.1 mph - N/A   Clear
6:55 PM 39.2 °F 34.2 °F 14.0 °F 36% 30.13 in 10.0 mi West 6.9 mph - N/A   Clear
7:15 PM 38.7 °F 35.2 °F 14.9 °F 38% 30.13 in 10.0 mi West 4.6 mph - N/A   Clear
7:35 PM 38.1 °F 32.9 °F 14.5 °F 38% 30.14 in 10.0 mi WSW 6.9 mph - N/A   Clear
7:55 PM 37.8 °F 34.2 °F 12.0 °F 35% 30.14 in 10.0 mi WSW 4.6 mph - N/A   Clear
8:15 PM 37.4 °F - 14.4 °F 39% 30.15 in 10.0 mi Calm Calm - N/A   Clear
8:35 PM 36.9 °F - 15.3 °F 41% 30.15 in 10.0 mi Calm Calm - N/A   Clear
8:55 PM 32.7 °F - 20.5 °F 61% 30.15 in 10.0 mi Calm Calm - N/A   Clear
9:15 PM 31.8 °F 27.3 °F 22.3 °F 68% 30.16 in 10.0 mi SE 4.6 mph - N/A   Clear
9:35 PM 31.5 °F - 25.3 °F 78% 30.17 in 10.0 mi Calm Calm - N/A   Clear
9:55 PM 30.6 °F - 22.6 °F 72% 30.17 in 10.0 mi Calm Calm - N/A   Clear
10:15 PM 30.2 °F 26.7 °F 24.8 °F 80% 30.17 in 10.0 mi East 3.5 mph - N/A   Clear
10:35 PM 30.0 °F 26.5 °F 23.7 °F 77% 30.18 in 10.0 mi ENE 3.5 mph - N/A   Clear
10:55 PM 29.3 °F 25.6 °F 22.1 °F 75% 30.17 in 10.0 mi ENE 3.5 mph - N/A   Clear
11:15 PM 28.6 °F 24.8 °F 22.1 °F 77% 30.17 in 10.0 mi ENE 3.5 mph - N/A   Clear
11:35 PM 28.9 °F - 21.7 °F 74% 30.18 in 10.0 mi Calm Calm - N/A   Clear
11:55 PM 28.6 °F 24.8 °F 22.1 °F 77% 30.17 in 10.0 mi East 3.5 mph - N/A   Clear